Location: Unspecified
(0.0000°N, 0.0000°E)
Time: 11:12:10
(UTC+00:00)

Envisat - Visible Passes

Search period start: 01 October 2022 00:00
Search period end: 11 October 2022 00:00
Orbit: 764 x 765 km, 98.2° (Epoch: 01 October)

Date Brightness Start Highest point End Pass type
(mag) Time Alt. Az. Time Alt. Az. Time Alt. Az.
01 Oct 3.3 03:47:23 10° NNE 03:57:32 10° S 03:51:56 64° ENE visible
02 Oct 5.1 03:11:34 10° NE 03:19:31 10° SSE 03:19:34 10° SSE visible
02 Oct 4.2 04:50:40 10° NNW 04:54:18 20° WNW 04:54:55 20° W visible
03 Oct 2.9 04:12:29 10° N 04:17:26 57° WNW 04:22:25 10° SSW visible
04 Oct 3.8 03:35:43 10° NNE 03:40:35 49° ESE 03:45:28 10° S visible
05 Oct 5.5 03:00:30 10° ENE 03:03:45 17° ESE 03:06:59 10° SE visible
05 Oct 3.8 04:38:13 10° NNW 04:42:28 27° WNW 04:46:44 10° SW visible
06 Oct 2.8 04:00:33 10° N 04:05:37 80° WNW 04:10:42 10° SSW visible
07 Oct 4.4 03:24:11 10° NE 03:28:46 35° ESE 03:33:21 10° SSE visible
07 Oct 4.6 05:05:08 10° NW 05:07:29 13° WNW 05:09:50 10° WSW visible
08 Oct 5.9 02:50:01 10° E 02:51:56 12° ESE 02:53:51 10° SE visible
08 Oct 3.4 04:25:59 10° N 04:30:38 38° WNW 04:35:20 10° SW visible
09 Oct 3.1 03:48:44 10° NNE 03:53:47 74° ESE 03:58:51 10° S visible
10 Oct 5.0 03:12:49 10° NE 03:16:56 25° ESE 03:21:04 10° SSE visible
10 Oct 4.2 04:52:11 10° NW 04:55:39 19° WNW 04:59:08 10° WSW visible
